Погода в Сетовном

Россия / Курганская область     55°04′48″N   67°04′13″E
темп.,
°C
ветер,
м/с
пор.,
м/с
влажн.,
%
обл.,
%
осадки,
мм/ч
давл.,
гПа
погр.,
м
9 мая, вс
вс923:00+16всв3639100 0.0 101581
02:00+14всв41048100 0.0 1014173
05:00+13всв41050100 0.0 1014184
08:00+16всв61144100 0.0 1013418
11:00+18всв4750100 0.1 1014884
14:00+21юв91433100 0.0 10132702
17:00+17всв91542100 0.4 10141318
20:00+17св111540100 0.1 1015956
10 мая, пн
пн1023:00+16всв91542100 0.1 1016768
02:00+13св71448100 0.0 1016573
05:00+11всв71348100 0.0 1018550
08:00+12всв81145100 0.0 1020713
11:00+15всв81037100 0.0 10211236
14:00+17всв7929100 0.0 10221721
17:00+17всв7928100 0.0 10221804
20:00+14всв4841100 0.0 1024190
11 мая, вт
вт1123:00+11всв364971 0.0 1025104
02:00+9св33540 0.0 102625
05:00+8св33540 0.0 102735
08:00+14ссв34410 0.0 1028369
11:00+18ссв44300 0.0 10281503
14:00+21ссв45240 0.0 10271991
17:00+22с452240 0.0 10272100
20:00+18ссв2234100 0.0 102711
12 мая, ср
ср1223:00+15ссв2239100 0.0 102819
02:00+13з1144100 0.0 102810
05:00+12зсз22508 0.0 102817
08:00+16зсз4639100 0.0 1028288
11:00+21зсз5628100 0.0 10271338
14:00+22сз683898 0.0 10262248
17:00+19ссз594899 0.0 1025554
20:00+17ссв594251 0.0 1026238
13 мая, чт
чт1323:00+14ссв384654 0.0 1027485
02:00+10с3562100 0.0 102799
05:00+9с346915 0.0 102871
08:00+13ссз34555 0.0 1028523
11:00+18с46445 0.0 10271330
14:00+22ссз473882 0.0 10252210
17:00+22ссз4641100 0.0 10251364
20:00+19сз3553100 0.0 102599